250  
ASUS44 KFWD 102015  
RWRTX  
NORTH TEXAS HOURLY WEATHER ROUNDUP  
NATIONAL WEATHER SERVICE FORT WORTH TX  
200 PM CST FRI NOV 10 2017  
 
NOTE: "FAIR" INDICATES FEW OR NO CLOUDS BELOW 12,000 FEET WITH NO  
SIGNIFICANT WEATHER AND/OR S TO VISIBILITY
.  
 
TXZ118-119-102100-  
DALLAS/FORT WORTH METROPLEX  
 
CITY SKY/WX TMP DP RH WIND PRES REMARKS
 
DFW AIRPORT MOSUNNY 64 45 49 SE10G17 30.20F  
DALLAS LOVE PTSUNNY 62 45 53 SE8 30.22F  
FTW MEACHAM PTSUNNY 64 48 56 SE9 30.21F  
DAL-EXECUTIVE CLOUDY 60 47 61 S7 30.22F  
FTW-ALLIANCE MOSUNNY 63 46 54 S9 30.21F  
FTW-NAS-JRB CLOUDY 62 45 53 SE8 30.22F  
FTW-SPINKS MOSUNNY 63 46 55 SE9 30.23F  
ARLINGTON CLOUDY 60 46 59 SE9 30.22F  
GRAND PRAIRIE SUNNY 61 45 55 SE6 30.23F  
ADDISON PTSUNNY 64 45 48 MISG 30.22F  
MESQUITE PTSUNNY 63 41 45 SE7 30.23F  
LANCASTER CLOUDY 61 46 57 E6 30.24F  

 
 
TXZ091>094-102>105-117-120-121-131>134-102100-  
NORTH CENTRAL TEXAS  
 
CITY SKY/WX TMP DP RH WIND PRES REMARKS
 
SHRMAN/DENISON SUNNY 64 38 38 S10G18 30.23F  
GAINESVILLE MOSUNNY 62 42 48 S12G17 30.23F  
BOWIE CLOUDY 56 46 69 SE7 30.22S  
BRIDGEPORT CLOUDY 58 47 65 SE7 30.23F  
DECATUR MOSUNNY 61 46 58 S9 30.20F  
DENTON CLOUDY 64 46 52 SE13G18 30.21F  
MCKINNEY CLOUDY 63 42 46 SE14 30.22F  
BONHAM SUNNY 63 39 41 E13 30.23F  
GREENVILLE SUNNY 66 37 34 S5 30.24F  
ROCKWALL CLOUDY 64 39 41 SE8 30.23F  
TERRELL MOSUNNY 65 35 33 E9 30.23F  
WAXAHACHIE CLOUDY 60 47 63 SE6 30.24F  
CLEBURNE CLOUDY 61 48 63 SE9 30.23F  
GRANBURY CLOUDY 59 49 68 S6 30.23F  

 
 
TXZ083>090-098>101-113>116-127>130-139>142-154-155-102100-  
WESTERN NORTH TEXAS  
 
CITY SKY/WX TMP DP RH WIND PRES REMARKS
 
WICHITA FALLS CLOUDY 52 45 77 S12 30.21F  
WF-KICKAPOO FOG 51 47 87 S9 30.24F VSB 1/2  
VERNON CLOUDY 53 41 63 SE5 30.20F  
ABILENE CLOUDY 54 50 86 SE12 30.17F  
ABILENE-DYESS CLOUDY 56 50 81 SE9 30.16F  
GRAHAM N/A 55 47 75 E7 30.19F  
BRECKENRIDGE CLOUDY 61 48 61 E6 30.18F  
CISCO CLOUDY 54 48 82 SE10 30.20F  
EASTLAND CLOUDY 55 49 80 SE8 30.20F  
RANGER CLOUDY 55 48 77 S6 30.20F  
MINERAL WELLS CLOUDY 58 47 66 S9 30.20F  
STEPHENVILLE CLOUDY 56 48 74 SE7 30.23F  
COMANCHE CLOUDY 55 52 88 SE7 30.21S  
BROWNWOOD CLOUDY 54 48 82 SE9 30.21S  
COLEMAN CLOUDY 55 50 84 SE8 30.19F  

 
 
TXZ143>147-156>162-174-175-102100-  
CENTRAL TEXAS  
 
CITY SKY/WX TMP DP RH WIND PRES REMARKS
 
WACO PTSUNNY 63 47 55 E7 30.22F  
WACO-TSTC MOSUNNY 63 48 59 SE5 30.22F  
WACO-MCGREGOR CLOUDY 61 49 64 SE7 30.22F  
HILLSBORO CLOUDY 61 48 61 S5 30.22F  
CORSICANA SUNNY 64 40 41 SE6 30.23F  
MEXIA CLOUDY 65 45 48 E7 30.21F  
HEARNE PTSUNNY 64 46 52 CALM 30.23F  
CAMERON CLOUDY 64 48 56 E7 30.20F HAZE  
TEMPLE CLOUDY 61 48 62 SE8 30.22F  
KILLEEN CLOUDY 59 48 67 E6 30.20F  
KILLEEN-SKYLRK CLOUDY 61 48 62 SE5 30.22S  
FORT HOOD CLOUDY 59 48 66 SE5 30.18F  
GATESVILLE CLOUDY 59 48 67 E5 30.23F  
HAMILTON CLOUDY 55 52 89 SE8 30.22F  
LAMPASAS CLOUDY 58 52 79 SE6 30.20F  

 
 
TXZ095>097-106>112-122>126-135>138-148>153-164>167-102100-  
EAST TEXAS  
 
CITY SKY/WX TMP DP RH WIND PRES REMARKS
 
PARIS SUNNY 64 35 34 SE9G16 30.25F  
SULPHUR SPRNGS SUNNY 66 34 30 SE5 30.26F  
MOUNT PLEASANT SUNNY 65 34 31 E7 30.26F  
GILMER SUNNY 64 37 37 E5 30.24F  
MINEOLA SUNNY 64 39 39 SE6 30.23F  
TYLER SUNNY 65 36 34 SE12 30.23F  
LONGVIEW NOT AVBL  
MARSHALL SUNNY 65 34 32 N3 30.26F  
ATHENS SUNNY 63 34 34 CALM 30.21F  
PALESTINE SUNNY 65 41 41 E6 30.23F  
JACKSONVILLE SUNNY 65 42 43 SE5 30.24F  
HENDERSON SUNNY 65 39 38 CALM 30.24F  
CENTER CLEAR 64 37 36 E6 30.24F  
NACOGDOCHES SUNNY 67 43 41 VRB3 30.23F  
LUFKIN SUNNY 66 45 46 VRB5 30.21F  

 
 
SUPPLEMENTAL OBSERVATIONS (NWS FORT WORTH AREA)  
 
CITY SKY/WX TMP DP RH WIND PRES REMARKS
 
CADDO GRASSLND N/A 64 37 36 S7G20 N/A  
PAT MAYSE LAKE N/A 63 30 29 SE9 N/A  
GREENVILLE N/A 64 34 32 SE6 N/A  
CEDAR HILL N/A 63 45 51 S7 N/A  
LBJ GRASSLAND N/A 63 46 55 S8G16 N/A  
COMANCHE N/A 54 48 82 SE12 N/A  
MCGREGOR N/A 61 45 55 E5 N/A  
LAKE LIMESTONE N/A 66 41 39 E7 N/A  

 
 
SUPPLEMENTAL OBSERVATIONS (NWS NORMAN AREA)  
 
CITY SKY/WX TMP DP RH WIND PRES REMARKS
 
GOODLETT N/A 51 43 73 SE10 30.16F  
ODELL N/A 51 45 77 SE7 30.20F  
CROWELL N/A 51 45 80 SE9 30.19F  
KNOX CITY N/A 54 46 76 E8 30.18F  
SEYMOUR N/A 55 46 71 E5 30.19F  
MILLERS CREEK N/A 57 50 77 E5 N/A  

 
 
SUPPLEMENTAL OBSERVATIONS (NWS SAN ANGELO AREA)  
 
CITY SKY/WX TMP DP RH WIND PRES REMARKS
 
WEINERT N/A 54 48 78 E6 30.18F  
HASKELL N/A 54 48 81 E6 30.17F  
THROCKMORTON N/A 57 48 72 SE9 30.19F  
STAMFORD N/A 56 51 82 SE8 30.18F  
CLYDE N/A 55 49 82 SE10 30.18F  
HAMBY N/A 55 48 76 SE9 N/A  
IVIE RESERVOIR N/A 54 50 87 SE10 N/A  
COLORADO BEND N/A 57 50 77 SE6 N/A  

 
 
SUPPLEMENTAL OBSERVATIONS (NWS SHREVEPORT AREA)  
 
CITY SKY/WX TMP DP RH WIND PRES REMARKS
 
CLARKSVILLE N/A 66 34 30 SE7 N/A  
TEXARKANA N/A 64 34 32 E5 N/A  
LINDEN N/A 66 34 30 E2 N/A  
CADDO LAKE N/A 66 36 32 NE5 N/A  
GILMER N/A 66 37 34 E5 N/A  
HENDERSON N/A 66 37 34 E6 N/A  
LUFKIN N/A 66 43 42 MISG N/A  
S SABINE NF N/A 68 41 37 N5 N/A  

 
 
SUPPLEMENTAL OBSERVATIONS ARE A COLLECTION OF AUTOMATED INSTRUMENTS  
THAT ARE MAINTAINED BY A VARIETY OF FEDERAL AND STATE AGENCIES.  
CERTAIN ELEMENTS...SUCH AS HUMIDITY VALUES AND SUSTAINED WIND  
SPEEDS...MAY BE APPROXIMATED.  
 
 
 
CLICK HERE TO GO TO PREVIOUS BULLETINS.

The Nexlab TX Page Main Text Page